CAPE
516 0 0 75 520 253 80 46 0 280 598 581 515 447 428 124 403 794 0 0 0 1 25 219 700 849 891 993 996 936 849 942 890 830 949 937 818 576 837 759 708 735 581 495 697 494 313 197 74
71 0 5 194 252 41 108 88 385 645 582 441 694 699 575 35 0 0 0 0 0 0 7 9 154 263 458 543 516 520 643 795 880 881 887 985 1024 1154 1012 778 871 728 664 649 663 708 664 379 216
0 0 27 113 0 102 74 226 643 624 516 482 708 134 13 0 0 0 0 0 0 0 1 3 12 9 9 17 18 14 33 86 238 621 1000 905 893 797 897 1009 1101 1091 1024 910 715 690 815 804 586
0 0 0 15 1 0 2 83 172 308 411 191 289 13 0 0 0 0 0 0 0 0 0 0 0 0 0 0 0 0 0 2 2 1 4 283 794 783 774 779 792 879 878 890 947 987 808 792 819
0 0 0 0 0 0 0 0 87 36 33 8 337 11 0 0 0 0 0 0 0 0 0 0 0 0 0 0 0 0 0 0 0 0 0 0 4 15 40 143 397 619 666 822 884 849 792 903 850
0 0 0 0 0 0 0 0 0 0 0 0 4 0 0 0 0 0 0 0 0 0 0 0 0 0 0 0 0 0 0 0 0 0 0 0 0 0 1 4 7 17 32 110 176 199 415 673 774
0 0 0 0 0 0 0 0 0 0 0 0 0 5 0 0 0 0 0 0 0 0 0 0 0 0 0 0 0 0 0 0 0 0 0 0 0 0 0 0 0 0 0 0 0 1 5 45 126
0 0 0 0 0 0 0 0 0 0 0 0 0 0 0 0 0 0 0 0 0 0 0 0 0 0 0 0 0 0 0 0 0 0 0 0 0 0 0 0 0 0 0 0 0 0 0 0 0
0 0 0 0 0 0 0 0 0 0 0 0 0 0 0 0 0 0 0 0 0 0 0 0 0 0 0 0 0 0 0 0 0 0 0 0 0 0 0 0 0 0 0 0 0 0 0 0 0
0 0 0 0 0 0 0 0 0 0 0 0 0 0 0 0 0 0 0 0 0 0 0 0 0 0 0 0 0 0 0 0 0 0 0 0 0 0 0 0 0 0 0 0 0 0 0 0 0
0 0 0 0 0 0 0 0 0 0 0 0 0 0 0 0 0 0 0 0 0 0 0 0 0 0 0 0 0 0 0 0 0 0 0 0 0 0 0 0 0 0 0 0 0 0 0 0 0
0 0 0 0 0 0 0 0 0 0 0 0 0 0 0 0 0 0 0 0 0 0 0 0 0 0 0 0 0 0 0 0 0 0 0 0 0 0 0 0 0 0 0 0 0 0 0 0 0
0 0 0 0 0 0 0 0 0 0 0 0 0 0 0 0 0 0 0 0 0 0 0 0 0 0 0 0 0 0 0 0 0 0 0 2 0 0 0 0 0 0 0 0 0 0 0 0 0
0 0 0 0 0 0 0 0 0 0 0 0 0 0 0 0 0 0 0 0 0 0 0 0 0 0 0 0 0 0 0 0 0 0 1 0 16 7 0 0 0 0 0 0 0 0 0 0 0
0 0 0 0 0 0 0 0 0 0 0 0 0 0 0 0 0 0 0 0 0 0 0 0 0 0 0 0 0 0 0 0 0 0 0 1 19 20 2 4 5 2 0 0 0 0 0 0 0
0 0 0 0 0 0 0 0 0 0 0 0 0 0 0 0 0 0 0 0 0 0 0 0 0 0 0 0 0 0 0 0 0 0 20 36 68 41 9 15 10 33 37 14 4 1 0 0 0
0 0 0 0 0 0 0 0 0 0 0 0 0 0 0 0 0 0 0 0 0 0 0 0 0 0 0 0 0 0 0 0 0 0 0 24 78 73 55 82 43 22 58 62 41 15 15 5 0
0 0 0 0 0 0 0 0 0 0 0 0 0 0 0 0 0 0 0 0 0 0 0 0 0 0 0 0 0 0 0 0 5 0 0 0 26 74 112 122 115 109 74 55 44 35 31 30 26
0 0 0 0 0 0 0 0 0 0 0 0 0 0 0 0 0 0 0 0 0 0 0 0 0 0 0 3 3 1 2 0 3 15 2 0 0 51 119 150 111 140 157 94 87 70 86 71 32
0 0 0 0 0 0 0 0 0 0 0 0 0 0 0 0 0 0 0 0 0 0 0 0 0 8 16 43 47 47 43 31 26 25 11 0 0 13 47 109 145 166 179 180 159 111 86 71 33
0 0 0 0 0 0 0 0 0 0 0 0 0 0 0 0 0 0 0 0 0 0 0 2 19 20 14 22 31 53 49 63 62 66 63 50 16 12 12 37 53 103 160 192 200 167 182 114 55
0 0 0 0 0 0 0 0 0 0 0 0 0 0 0 0 0 0 0 0 0 0 7 4 9 10 11 19 18 27 38 49 49 48 65 68 57 34 21 12 4 6 65 123 146 178 151 149 83
0 0 0 0 0 0 0 0 0 0 0 0 0 0 0 0 0 0 0 0 0 0 0 6 6 15 8 17 31 45 35 58 63 67 69 69 41 69 55 37 17 6 5 17 35 100 129 111 77
0 0 0 0 0 0 0 0 0 0 0 0 0 0 0 0 0 0 0 0 0 0 6 7 8 6 15 29 40 39 47 64 61 44 55 65 58 58 71 56 61 47 25 16 10 11 63 93 53
0 0 0 0 0 0 0 0 0 0 0 0 0 0 0 0 0 0 0 0 0 3 2 1 10 23 22 29 34 37 42 42 45 55 38 38 43 60 56 61 44 58 81 59 33 25 38 47 53
0 0 0 0 0 0 0 0 0 0 0 0 0 0 0 0 0 0 0 0 0 1 3 13 30 34 29 27 25 23 25 25 29 27 29 36 59 60 59 57 51 32 44 57 74 75 67 48 48
0 0 0 0 0 0 0 0 0 0 0 0 0 0 0 0 0 0 0 0 0 2 16 25 27 29 24 21 19 15 15 16 18 19 25 23 19 28 45 49 47 50 39 42 49 56 39 75 66
0 0 0 0 0 0 0 0 0 0 0 0 0 0 0 0 0 0 0 0 0 4 12 23 43 24 17 16 12 12 9 8 10 14 14 18 18 19 19 23 47 52 41 31 48 46 35 47 49
0 0 0 0 0 0 0 0 0 0 0 0 0 0 0 0 0 0 0 1 1 8 20 33 21 14 11 10 8 6 4 4 2 2 5 11 16 17 17 17 19 32 43 32 42 47 46 48 47
0 0 0 0 0 0 0 0 0 0 0 0 0 0 0 0 0 0 1 0 4 13 19 15 11 9 7 7 6 3 1 10 21 21 9 1 6 13 14 15 16 12 25 28 34 42 28 26 49
CIN
-341 0 0 -165 -29 -2 0 -14 0 0 0 -1 -8 -10 -66 -126 -84 -9 0 0 0 0 -56 -28 -1 0 0 0 0 0 -1 0 0 -1 -1 0 0 -1 0 -1 -2 -1 0 0 -1 0 0 -1 -10
-429 0 -49 -81 -10 -3 -7 -7 0 0 -11 -12 -4 0 -16 -11 0 0 0 0 0 0 0 0 -22 -11 -7 -6 -7 -9 -3 0 0 0 -1 -2 -2 -2 0 0 -1 -3 -3 -3 0 0 0 0 0
0 0 -42 -26 0 -9 -20 -29 0 -7 -9 -1 -3 -120 -57 0 0 0 0 0 0 0 0 0 0 0 0 -24 -26 -27 -111 -66 -47 -10 0 0 -2 -2 -2 0 -1 0 0 0 0 -1 0 0 0
0 0 0 -86 -8 0 -39 -47 -31 -1 -1 -28 -2 -111 0 0 0 0 0 0 0 0 0 0 0 0 0 0 0 0 0 0 0 0 -2 -41 0 0 0 0 -4 0 0 0 0 0 0 -2 0
0 0 0 0 0 0 0 0 -53 -60 -77 -95 -6 -113 0 0 0 0 0 0 0 0 0 0 0 0 0 0 0 0 0 0 0 0 0 0 0 -78 -49 -59 -10 0 0 0 0 0 0 0 0
0 0 0 0 0 0 0 0 0 0 0 0 -66 0 0 0 0 0 0 0 0 0 0 0 0 0 0 0 0 0 0 0 0 0 0 0 0 0 0 0 -19 -76 -81 -44 -30 -25 -13 -1 0
0 0 0 0 0 0 0 0 0 0 0 0 0 -24 0 0 0 0 0 0 0 0 0 0 0 0 0 0 0 0 0 0 0 0 0 0 0 0 0 0 0 0 0 0 0 -35 -34 -77 -73
0 0 0 0 0 0 0 0 0 0 0 0 0 0 0 0 0 0 0 0 0 0 0 0 0 0 0 0 0 0 0 0 0 0 0 0 0 0 0 0 0 0 0 0 0 0 0 0 0
0 0 0 0 0 0 0 0 0 0 0 0 0 0 0 0 0 0 0 0 0 0 0 0 0 0 0 0 0 0 0 0 0 0 0 0 0 0 0 0 0 0 0 0 0 0 0 0 0
0 0 0 0 0 0 0 0 0 0 0 0 0 0 0 0 0 0 0 0 0 0 0 0 0 0 0 0 0 0 0 0 0 0 0 0 0 0 0 0 0 0 0 0 0 0 0 0 0
0 0 0 0 0 0 0 0 0 0 0 0 0 0 0 0 0 0 0 0 0 0 0 0 0 0 0 0 0 0 0 0 0 0 0 0 0 0 0 0 0 0 0 0 0 0 0 0 0
0 0 0 0 0 0 0 0 0 0 0 0 0 0 0 0 0 0 0 0 0 0 0 0 0 0 0 0 0 0 0 0 0 0 0 0 0 0 0 0 0 0 0 0 0 0 0 0 0
0 0 0 0 0 0 0 0 0 0 0 0 0 0 0 0 0 0 0 0 0 0 0 0 0 0 0 0 0 0 0 0 0 0 0 0 0 0 0 0 0 0 0 0 0 0 0 0 0
0 0 0 0 0 0 0 0 0 0 0 0 0 0 0 0 0 0 0 0 0 0 0 0 0 0 0 0 0 0 0 0 0 0 0 0 0 0 0 0 0 0 0 0 0 0 0 0 0
0 0 0 0 0 0 0 0 0 0 0 0 0 0 0 0 0 0 0 0 0 0 0 0 0 0 0 0 0 0 0 0 0 0 0 0 0 0 -1 0 0 0 0 0 0 0 0 0 0
0 0 0 0 0 0 0 0 0 0 0 0 0 0 0 0 0 0 0 0 0 0 0 0 0 0 0 0 0 0 0 0 0 0 0 0 0 0 0 0 0 0 0 0 0 0 0 0 0
0 0 0 0 0 0 0 0 0 0 0 0 0 0 0 0 0 0 0 0 0 0 0 0 0 0 0 0 0 0 0 0 0 0 0 0 0 0 0 0 0 0 0 0 0 0 0 0 0
0 0 0 0 0 0 0 0 0 0 0 0 0 0 0 0 0 0 0 0 0 0 0 0 0 0 0 0 0 0 0 0 0 0 0 0 -1 0 0 0 0 0 0 0 0 0 0 0 0
0 0 0 0 0 0 0 0 0 0 0 0 0 0 0 0 0 0 0 0 0 0 0 0 0 0 0 0 0 0 0 0 0 0 0 0 0 0 0 0 0 0 0 0 0 0 0 0 0
0 0 0 0 0 0 0 0 0 0 0 0 0 0 0 0 0 0 0 0 0 0 0 0 0 0 0 0 0 0 0 0 0 0 0 0 0 -8 -2 0 0 0 0 0 0 0 0 0 0
0 0 0 0 0 0 0 0 0 0 0 0 0 0 0 0 0 0 0 0 0 0 0 0 0 0 0 0 0 0 0 0 0 0 0 0 0 0 -2 -2 0 0 0 0 0 0 0 0 0
0 0 0 0 0 0 0 0 0 0 0 0 0 0 0 0 0 0 0 0 0 0 0 0 0 0 0 0 0 0 0 0 0 0 0 0 0 0 0 0 0 -13 0 0 0 0 0 0 0
0 0 0 0 0 0 0 0 0 0 0 0 0 0 0 0 0 0 0 0 0 0 0 0 0 0 0 0 0 0 0 0 0 0 0 0 0 0 0 0 0 0 0 -6 0 0 0 0 0
0 0 0 0 0 0 0 0 0 0 0 0 0 0 0 0 0 0 0 0 0 0 0 0 0 0 0 0 0 0 0 0 0 0 0 0 0 0 0 0 0 0 0 0 0 0 0 0 0
0 0 0 0 0 0 0 0 0 0 0 0 0 0 0 0 0 0 0 0 0 0 0 0 0 0 0 0 0 0 0 0 0 0 0 0 0 0 0 0 0 0 0 0 0 0 0 0 0
0 0 0 0 0 0 0 0 0 0 0 0 0 0 0 0 0 0 0 0 0 0 0 0 0 0 0 0 0 0 0 0 0 0 0 0 0 0 0 0 0 0 0 0 0 0 0 0 -3
0 0 0 0 0 0 0 0 0 0 0 0 0 0 0 0 0 0 0 0 0 0 0 0 0 0 0 0 0 0 0 0 0 0 0 0 0 0 0 0 0 0 0 0 0 0 0 0 0
0 0 0 0 0 0 0 0 0 0 0 0 0 0 0 0 0 0 0 0 0 0 0 0 0 0 0 0 0 0 0 0 0 0 0 0 0 0 0 0 0 0 0 0 0 0 0 0 0
0 0 0 0 0 0 0 0 0 0 0 0 0 0 0 0 0 0 0 0 0 0 0 0 0 0 0 0 0 0 0 0 0 0 0 0 0 0 0 0 0 0 0 0 0 0 0 0 0
0 0 0 0 0 0 0 0 0 0 0 0 0 0 0 0 0 0 0 0 0 0 0 0 0 0 0 0 0 0 0 0 0 0 0 0 0 0 0 0 0 0 0 0 0 0 0 0 0
Wind_Speed
15 7 4 4 6 8 6 6 2 5 7 9 12 13 15 16 8 5 6 14 20 17 18 19 24 21 18 17 15 14 11 9 7 6 6 4 4 3 2 3 4 5 4 5 5 4 4 4 4
9 6 4 4 8 6 8 7 8 9 7 5 10 5 11 9 8 5 8 19 17 16 14 16 22 21 23 23 21 20 20 18 15 13 10 9 7 5 4 4 4 6 5 6 6 6 6 6 6
9 5 5 5 4 9 7 4 6 5 7 8 4 15 8 8 10 7 10 14 15 13 14 18 23 23 23 22 22 22 20 19 20 20 18 14 12 8 7 7 6 5 5 5 7 8 9 9 9
4 5 6 8 8 6 7 6 4 2 7 10 4 13 11 12 4 8 12 11 11 11 11 18 23 23 22 21 21 20 20 20 20 19 20 21 20 17 16 14 9 6 7 6 7 8 9 10 11
6 5 4 5 7 7 8 6 5 6 4 14 12 12 9 8 8 8 9 8 8 10 11 12 19 21 22 21 21 20 20 19 19 19 19 19 17 17 15 15 15 13 11 13 12 9 8 10 11
5 5 5 6 7 7 11 10 10 13 14 16 11 13 9 6 8 8 8 8 10 11 11 12 20 20 17 20 21 20 20 19 19 18 17 16 15 14 14 14 14 14 13 13 12 12 13 10 8
5 6 4 7 7 13 12 14 12 12 13 10 10 8 8 8 7 7 7 7 9 11 9 10 7 11 18 15 19 18 19 19 18 17 17 15 12 11 11 12 13 13 12 12 11 11 11 10 11
5 1 5 8 3 4 4 6 15 15 20 2 21 10 10 9 5 3 3 6 8 10 10 11 11 11 11 11 17 17 16 16 15 16 15 16 12 8 11 10 11 11 11 11 11 10 10 11 10
2 1 6 1 2 8 14 4 13 15 18 22 16 16 11 5 3 10 10 13 13 13 15 15 16 15 15 14 13 15 16 16 15 13 15 14 10 10 11 7 10 9 8 8 9 10 11 10 8
3 3 5 6 8 15 20 17 10 14 18 17 16 18 19 15 13 13 14 14 16 16 17 16 15 16 15 12 13 11 12 10 10 10 10 9 11 9 8 9 8 10 9 9 5 7 10 8 5
5 8 12 13 9 4 15 22 21 4 15 17 16 13 14 15 14 15 16 15 16 15 13 15 15 17 17 13 10 6 6 7 7 12 8 9 8 7 7 5 6 6 9 6 8 6 4 7 6
13 17 13 15 14 10 15 16 20 18 13 12 13 13 15 16 16 16 17 18 18 19 18 17 16 15 15 11 10 11 9 9 8 9 9 9 6 8 8 6 7 6 6 8 7 6 8 8 9
16 14 14 15 18 19 19 18 16 15 11 11 12 13 14 15 16 16 18 19 19 19 19 19 19 17 16 16 12 12 12 11 12 11 11 9 8 8 9 9 7 7 7 7 7 7 7 9 10
12 15 13 13 12 9 15 13 6 11 9 10 11 13 15 17 19 18 19 20 20 20 19 19 19 17 17 15 16 12 11 13 13 12 12 16 11 10 10 9 8 8 8 7 7 8 8 8 9
16 13 10 5 6 7 9 16 11 8 8 10 13 15 15 18 19 19 18 19 20 18 19 19 19 18 16 16 14 11 10 12 11 12 17 18 15 13 13 10 9 9 8 10 9 10 9 8 8
6 5 5 9 8 5 4 7 9 8 9 12 14 15 17 20 21 20 19 20 20 20 20 20 17 20 19 18 14 11 11 10 11 12 12 18 16 14 11 9 10 9 8 8 8 8 9 8 8
3 11 13 5 9 8 8 9 8 7 10 12 14 16 18 20 21 20 21 20 21 21 21 22 21 20 21 18 15 15 15 11 11 11 11 15 16 14 13 9 9 12 9 9 9 9 9 9 8
13 13 12 9 8 7 7 10 7 9 10 12 15 18 20 22 22 22 23 22 21 21 21 22 19 21 20 15 14 12 12 11 10 10 12 17 13 16 13 10 12 10 9 9 10 11 10 10 9
9 10 12 17 7 11 5 7 6 4 9 14 17 20 23 23 23 23 23 23 23 23 23 23 22 22 17 12 13 12 12 12 12 11 16 17 16 16 14 10 12 11 11 12 11 11 11 8 8
7 10 14 6 2 7 8 7 4 4 10 15 19 22 24 24 26 26 26 25 24 26 25 24 24 22 18 13 12 13 13 12 12 12 14 17 17 17 16 15 13 13 11 13 12 12 9 9 8
4 13 16 19 17 3 4 9 6 4 9 16 20 23 23 25 27 27 27 27 25 27 25 24 23 22 20 20 13 12 13 12 12 12 12 12 16 15 15 15 14 14 12 11 12 11 13 9 9
7 17 16 14 9 5 3 3 7 4 13 20 25 24 24 26 26 26 27 27 27 25 22 24 22 22 18 19 16 21 16 16 13 13 13 13 17 18 17 16 16 16 12 13 12 11 12 11 10
9 25 20 8 8 6 5 8 9 7 17 26 26 26 26 26 28 29 29 27 27 23 23 21 22 21 20 19 19 18 19 15 13 13 17 16 15 17 18 18 17 16 12 14 14 14 13 10 10
22 23 7 4 5 4 6 7 10 9 18 25 26 28 28 28 29 29 27 26 24 23 21 21 22 21 19 22 23 19 22 19 16 16 14 13 12 12 16 18 16 15 14 14 12 14 15 12 11
22 20 5 4 5 7 18 9 10 9 20 22 26 28 29 29 28 27 28 27 25 25 24 21 23 24 24 23 22 21 20 20 19 18 14 15 12 11 13 15 14 13 13 14 13 13 13 12 11
13 14 7 8 10 12 10 10 7 7 21 23 24 27 28 28 26 27 28 27 25 26 27 26 25 25 23 22 22 20 20 13 13 15 13 12 12 12 14 14 13 15 15 13 12 11 11 12 11
9 8 5 7 7 8 6 8 8 21 23 25 27 28 27 27 26 30 28 26 27 25 27 26 25 24 23 22 19 19 17 17 16 18 15 12 13 12 15 15 15 15 15 15 13 10 13 12 13
8 8 1 4 9 10 10 6 11 25 27 28 30 29 28 27 29 27 27 26 25 25 25 26 25 25 24 22 19 17 18 17 16 15 17 16 14 14 14 14 14 13 13 14 13 12 13 13 11
7 7 5 3 3 5 9 5 12 22 25 29 30 29 28 29 28 28 26 25 25 25 25 24 24 24 23 21 20 20 18 17 15 14 15 15 14 13 13 12 12 13 14 13 12 13 13 12 13
10 7 6 4 6 5 4 6 19 24 23 27 29 27 28 28 29 27 27 28 27 26 25 25 24 23 22 21 20 20 18 15 15 14 14 14 13 12 12 11 11 11 12 10 11 13 13 14 12
Wind_Direction
280 277 288 249 250 238 65 69 344 23 84 61 43 64 85 45 6 32 336 354 354 356 19 23 30 33 38 36 33 21 9 357 336 323 314 311 303 308 315 264 265 282 283 271 259 223 222 222 226
291 293 240 278 263 266 85 30 40 57 53 336 61 322 42 73 34 36 10 347 356 350 11 24 28 28 29 34 31 30 26 21 17 3 336 317 313 311 289 269 251 262 265 267 273 253 247 242 237
263 263 262 269 294 24 53 45 92 77 40 2 107 50 41 12 36 12 359 350 356 358 7 23 29 31 30 30 30 27 23 18 18 14 19 6 358 345 331 321 297 303 307 286 276 267 261 257 240
283 206 228 262 89 54 39 64 12 2 90 21 60 83 95 40 37 13 7 13 13 12 7 30 31 31 30 29 28 26 23 19 19 18 19 19 27 31 23 24 16 18 17 334 300 281 270 262 265
237 255 224 87 81 78 65 39 20 30 51 18 357 74 73 51 55 37 19 16 18 17 12 24 34 30 28 26 24 22 21 19 20 18 18 16 16 22 19 22 20 33 25 22 22 358 318 294 269
243 276 213 165 105 70 55 20 24 32 46 13 49 97 69 61 46 46 38 35 30 31 19 14 15 17 22 24 17 16 14 13 12 13 14 13 17 20 17 21 19 25 21 22 15 2 357 358 341
288 285 35 104 125 53 21 39 33 68 26 32 339 71 93 72 52 55 50 43 36 30 20 15 18 17 6 16 17 7 6 5 3 2 4 357 352 8 15 14 14 15 14 14 6 5 356 337 327
307 359 110 15 47 82 28 57 61 24 31 94 358 32 64 51 56 56 82 61 38 28 17 13 7 4 360 354 13 352 356 352 353 354 356 339 313 3 358 6 8 3 2 354 355 352 345 335 323
270 190 104 126 316 84 9 71 70 80 64 57 59 61 69 63 32 43 25 15 11 13 7 7 2 0 1 352 1 346 345 339 341 347 346 332 336 335 337 354 340 339 346 337 339 335 329 322 308
314 123 67 15 26 78 52 39 37 69 42 48 57 46 28 34 22 15 14 10 3 3 2 358 357 351 348 341 344 337 331 329 325 325 330 325 319 325 297 291 310 311 318 306 305 307 304 295 321
6 85 85 23 20 89 91 57 31 21 51 37 38 34 31 22 23 14 6 4 353 351 354 346 345 340 335 332 323 317 313 305 302 303 306 308 306 299 309 307 307 319 309 313 319 312 309 313 305
92 49 67 49 47 72 83 91 65 61 61 53 45 31 27 22 13 9 359 352 348 342 341 334 335 328 326 326 316 315 310 305 295 280 293 283 293 295 293 292 294 296 300 305 305 312 309 299 291
98 103 87 86 84 84 84 72 74 67 59 52 41 30 21 10 2 357 353 346 341 338 336 336 332 333 326 323 316 317 312 308 305 298 279 269 267 276 283 279 279 278 288 285 297 298 300 299 298
99 104 99 87 85 88 87 60 77 58 45 40 25 20 7 6 358 354 353 345 344 339 338 334 334 326 324 316 314 309 307 307 301 297 295 286 275 269 269 273 277 281 280 285 288 295 288 288 293
127 115 121 65 102 117 144 69 60 42 33 25 14 10 2 0 357 355 348 341 338 334 330 329 323 324 317 313 310 306 294 294 291 290 291 289 284 283 289 294 282 278 277 281 275 279 287 282 282
243 243 253 64 14 107 248 82 63 40 25 23 12 7 358 357 351 348 344 340 335 330 327 323 321 316 316 313 306 302 294 295 293 285 281 282 281 277 277 285 287 280 279 275 274 274 275 275 275
182 342 346 115 52 5 347 93 65 29 28 14 2 358 358 350 346 345 341 338 333 331 326 322 320 320 317 307 304 294 292 291 291 289 286 282 279 277 275 270 279 288 285 278 268 265 263 266 271
334 332 330 330 25 351 69 94 77 46 23 1 354 357 350 347 347 342 341 337 334 328 324 320 319 317 314 310 302 298 294 288 287 291 291 288 281 278 271 272 275 275 273 264 271 267 262 264 265
305 300 320 347 65 323 81 122 93 37 18 5 1 352 348 344 344 340 340 337 331 329 323 323 318 317 312 307 303 298 299 301 291 283 285 286 287 288 275 267 263 270 266 265 258 262 269 264 264
333 348 346 318 302 321 119 127 113 27 22 8 355 348 350 345 340 340 338 335 334 328 329 326 321 317 312 305 298 295 293 287 285 289 281 275 272 272 273 270 264 254 260 257 259 256 253 258 259
65 1 338 314 315 135 189 161 197 103 15 358 350 352 350 346 339 338 336 334 334 332 332 323 323 318 315 308 301 293 286 282 280 274 274 273 279 281 283 281 277 270 263 262 256 256 252 256 259
306 356 321 321 317 355 204 16 132 15 360 354 351 351 346 344 339 336 337 338 334 331 326 324 317 314 311 313 305 299 290 285 279 278 280 278 272 268 269 265 264 263 259 254 256 246 241 244 250
326 315 288 283 285 307 103 293 105 48 355 354 347 347 345 341 339 338 339 336 332 328 324 320 317 317 322 310 320 309 294 289 287 279 276 273 269 267 263 264 264 262 260 255 254 253 251 252 253
331 323 81 193 258 230 37 337 83 22 4 350 345 341 341 339 340 339 336 329 326 325 326 323 325 316 325 319 310 301 299 297 289 280 280 272 265 262 260 264 259 257 257 259 257 256 253 252 252
1 354 352 341 334 9 360 310 59 19 8 356 343 340 339 339 341 336 332 332 327 331 328 330 325 328 321 313 307 304 297 294 289 284 276 274 267 257 255 257 259 263 252 244 254 262 251 246 242
356 10 25 319 343 317 298 341 87 357 6 355 344 339 338 339 337 333 334 328 335 333 336 332 328 318 315 312 308 302 295 287 284 278 280 279 274 272 264 251 249 257 262 267 262 250 246 243 254
346 24 340 288 284 292 353 74 163 2 358 350 344 341 338 336 336 333 335 335 336 338 330 323 324 324 321 317 310 304 298 291 285 282 272 266 263 265 263 265 253 243 252 260 255 257 261 255 243
44 350 358 319 346 317 340 36 350 351 350 346 344 339 339 336 338 335 336 339 336 332 327 330 330 326 324 320 315 309 303 296 286 280 275 268 259 254 255 258 264 259 237 246 251 247 247 255 259
9 25 8 269 15 310 316 42 5 351 348 343 338 338 338 340 333 338 338 340 336 332 334 332 331 329 327 324 319 314 308 301 290 278 273 266 264 251 247 245 247 256 252 236 244 248 251 245 253
42 27 1 357 342 310 261 289 20 353 342 342 334 338 341 329 342 340 340 341 335 337 337 336 333 331 328 324 321 318 314 320 325 320 290 263 250 251 237 237 237 237 248 239 237 240 242 246 241